Погода в Петрозаводске

Погода в Петрозаводске : погода сейчас, прогноз погоды и архив. Всё, что Вы хотите узнать о погоде в Петрозаводске!

Хотите узнать прогноз погоды в Петрозаводске? Тогда Вам сюда: Погода в Петрозаводске

Поиск расширенной информации на нашем сайте:

Другие новости

Новости СМИ2

Главная страница сайта

Новости сайта

03.07.2017

Напоминаем, что на нашем специализированном сайте Метеоцентр.Азия вы можете получить высокодетализированные автоматические прогнозы погоды по пунктам России, СНГ и мира в авиационном формате (включающие направление и скорость ветра, видимость, явления погоды, количество и форму облачности, нижнюю и верхнюю границу облачности).

Рекомендуем: консультация юриста бесплатно круглосуточно консультация юриста бесплатно круглосуточно онлайн

Погода в Петрозаводске - сегодня

Время (UTC), дата Ветер
(°,м/с) 
Видим.   Явления Облачность Т
(°С)
Тd
(°С)
f(%) Тe
(°С)
Pmin
(гПа)
dP
(гПа)
Po
(мм)
O2
(г/м3)
Тmin Tmax R s Состояние
почвы
21 11.10.18 240 (ЮЗ) 20000 м    9/5 600 м средняя 
[Sc|Ac trans]
+8.5 +5.9 84 +7  1028.8  -0.9  761  297           
00 12.10.18 260 (З) 20000 м    10/10 300 м 
[Sc]
+7.8 +5.9 88 +7  1027.9  -0.9  761  297           
09 12.10.18 270 (З) 20000 м    10/10 300 м 
[Sc]
+9.9 +8.3 90 +9  1026.9  -0.2  760  294           
15 12.10.18 270 (З) 20000 м    10/8 300 м средняя 
[Sc|Ac und]
+9.2 +7.6 90 +9  1026.2  -0.1  760  295      0.0     
21 12.10.18 240 (ЮЗ) 10 км  слаб. морось  10/10 200 м 
[St]
+7.6 +7.2 97 +8  1025.7  0.3  759  296           
03 13.10.18 тихо ()   10 км  слаб. морось  10/10 200 м 
[St]
+7.9 +7.6 98 +8  1024.2  -0.6  758  296  +7.5    0.0     
09 13.10.18 240 (ЮЗ) 15000 м  {морось}  10/6 300 м средняя 
[Sc|Ac As]
+9.3 +8.7 96 +9  1023  -0.5  757  294           
21 13.10.18 250 (З) 10 км    10/10 100 м 
[St]
+10.3 +10 98 +11  1021.2  -0.3  756  292           
00 14.10.18 250 (З) 20000 м    10/8 300 м средняя 
[Sc|As trans]
+9.9 +9.3 96 +9  1020.4  -0.8  755  292           
12 14.10.18 240 (ЮЗ) 30000 м    4/0 верхняя 
[Ci fib]
+16.9 +12.7 76 +22  1018.4  754  284           
21 14.10.18 240 (ЮЗ) 5{11}  20000 м    ясно 
+11.7 +9.1 84 +11  1019.5  0.4  755  290           
09 15.10.18 240 (ЮЗ) 5{12}  22000 м    ясно 
+14.4 +9.4 72 +14  1017.7  -0.6  753  287           
15 15.10.18 230 (ЮЗ) 5{12}  22000 м    ясно 
+12.6 +7.8 73 +12  1016.9  0.3  753  289           
21 15.10.18 240 (ЮЗ) 5{11}  20000 м    ясно 
+10.4 +7.8 84 +9  1017.2  0.1  753  291           
09 16.10.18 240 (ЮЗ) 20000 м    8/3 2000 м средняя, верхняя 
[Ac trans|Ci fib]
+12 +7.4 73 +11  1012.5  -1  750  288           
21 16.10.18 280 (З) 20000 м    10/10 600 м 
[Ac und]
+8.5 +6 84 +9  1020.4  2.3  755  294           
00 17.10.18 240 (ЮЗ) 20000 м    4/0 средняя 
[Ac trans]
+5.6 +4.9 95 +5  1021.6  756  298           
09 17.10.18 070 (В) 25000 м  {туман}  5/3 2000 м средняя, верхняя 
[Ac trans|Ci fib]
+9.2 +6.5 83 +10  1023.4  0.5  758  294           
15 17.10.18 150 (ЮВ) 30000 м    10/6 600 м средняя 
[Sc|Ac und]
+10.1 +6.1 76 +10  1020.8  -1.7  756  293           
21 17.10.18 230 (ЮЗ) 20000 м    10/10 2000 м 
[Ac und]
+11.8 +9.1 84 +11  1015.8  -2.5  752  289           
03 18.10.18 250 (З) 4{10}  20000 м    10/8 300 м средняя 
[Sc|Ac und]
+10.2 +8.5 89 +9  1012.9  -1.2  750  290  +10         
09 18.10.18 250 (З) 15000 м    10/10 300 м 
[Sc]
+11.6 +9.3 86 +11  1012.6  -0.2  750  288           
21 18.10.18 260 (З) 10 км  слаб. дождь  10/6 300 м средняя 
[Sc|As op]
+10.3 +9 92 +9  1006.5  -0.6  745  288           
09 19.10.18 270 (З) 5{11}  20000 м    9/9 300 м 
[Sc]
+6.4 +3.4 81 +5  1010.9  0.4  748  294           
21 19.10.18 260 (З) 10 км  слаб. дождь  10/6 300 м средняя 
[Sc|As op]
+5.7 +4.2 90 +4  1013.2  0.4  750  295           
Время (UTC), дата Ветер
(°,м/с) 
Видим.   Явления Облачность Т
(°С)
Тd
(°С)
f(%) Тe
(°С)
Pmin
(гПа)
dP
(гПа)
Po
(мм)
O2
(г/м3)
Тmin Tmax R s Состояние
почвы

Для получения пояснительной информации подведите курсор к названию столбца.

ПОГОДА в Петрозаводске - архив

Всё, что Вы хотите узнать о погоде в Петрозаводске - удобно и подробно!

Выберите нужную дату (начиная с 1 января 2015* года) и нажмите кнопку "Найти".
Будут отображены архивные сводки погоды по пункту Петрозаводск, начиная с указанной даты.


Отображать данные в формате CSV (для использования в таблицах Excel)


Внимание! Наш архив погоды предназначен исключительно для личного некоммерческого использования в познавательных целях. Если Вам необходимы официальные справки о состоянии погоды (для производственных, юридических, коммерческих и т.п. целей), обращайтесь в органы Росгидромета.

*Примечание: данная дата относится к архиву по метеостанциям СССР (Россия, СНГ, Балтия).
Архив по метеостанциям Зарубежной Европы и Азии (кроме Китая) хранится 10 дней, по другим регионам земного шара (Китай, Африка, Америка, Австралия, Океания) - 1 день.

Петрозаводск - район местоположения метеостанции


Название, широта, долгота, высота метеостанции:
Петрозаводск 61.8°ш. 34.3°д. 110 м над ур. моря [Российская Федерация]

Дополнительная информация

В oтличие oт бoльшинства пoгoдных сайтoв мы публикуем пoдрoбную метеoинфoрмацию в детальнoм прoфессиoнальнoм фoрмате.

Характеристики температуры и влажнoсти вoздуха измеряются на высoте 2 м в тени вдали oт зданий и деревьев.
Скoрoсть ветра измеряется на высoте 10 м (на урoвне рoста челoвека скoрoсть ветра ниже в 1.5-2 раза). Если метеoстанция нахoдится в гoрoде или в лесу, тo скoрoсть ветра занижена на 2-4 м/с пo сравнению с oткрытым местoм. Скoрoсть ветра над акватoриями крупных рек и oзёр, а также на вершинах хoлмoв на 2-5 м/с выше, чем в oбычных услoвиях.
Атмoсфернoе давление в разных тoчках местнoсти мoжет значительнo oтличаться oт давления на метеoстанции, в зависимoсти oт услoвий рельефа (при пoдъёме на 10 м давление пoнижается примернo на 1 мм рт.ст.).